[[[{"header":{"parameterUnit":"kt","parameterCategory":2,"dx":1,"dy":1,"la1":30.253999710083008,"la2":30.299108505249023,"lo1":-89.0895004272461,"lo2":-89.04439544677734,"nx":28,"ny":28,"refTime":"2022-10-02T21:00:00:Z","depth":"0","parameterNumber":2,"parameterNumberName":"U-component_of_CURRENTS"},"data":[-0.1747,-0.166,-0.1739,-0.1855,-0.2037,-0.2135,-0.2224,-0.2334,-0.2434,-0.2556,-0.2633,-0.2844,-0.2968,-0.3155,-0.2995,-0.289,-0.2721,-0.2772,-0.3024,-0.2668,-0.2693,-0.2717,-0.262,-0.2481,-0.2481,-0.2303,-0.2302,-0.2301,-0.1953,-0.1992,-0.2068,-0.223,-0.2387,-0.2576,-0.2788,-0.2826,-0.2975,-0.3174,-0.34,-0.3522,-0.3603,-0.3748,-0.3795,-0.3773,-0.3563,-0.3546,-0.3038,-0.2974,-0.3196,-0.3116,-0.3079,-0.3079,-0.3079,-0.308,-0.308,-0.308,-0.2357,-0.2313,-0.2428,-0.2538,-0.2722,-0.2889,-0.2916,-0.3156,-0.3319,-0.3482,-0.3841,-0.4015,-0.414,-0.4661,-0.4766,-0.4487,-0.4718,-0.3976,-0.4052,-0.4097,-0.3992,-0.4557,-0.4731,-0.4736,-0.4741,-0.4746,-0.475,0,-0.2663,-0.276,-0.2782,-0.2917,-0.3016,-0.315,-0.3294,-0.337,-0.3634,-0.3761,-0.4002,-0.4181,-0.4627,-0.466,-0.4992,-0.4925,-0.426,-0.4485,-0.4229,-0.3355,-0.3436,-0.3376,-0.3683,-0.3655,-0.3655,-0.3655,-0.3655,-0.3655,-0.3065,-0.3022,-0.3193,-0.3247,-0.3291,-0.3366,-0.3445,-0.3641,-0.3722,-0.3952,-0.3972,-0.4175,-0.4346,-0.4606,-0.4682,-0.4807,-0.448,-0.444,-0.4211,-0.4077,-0.4161,-0.4187,-0.4096,-0.3652,-0.3653,-0.3653,-0.3653,0,-0.3266,-0.339,-0.3356,-0.3493,-0.3548,-0.3535,-0.3713,-0.3752,-0.3864,-0.3917,-0.3909,-0.4013,-0.4145,-0.4134,-0.4073,-0.4108,-0.4071,-0.4241,-0.3852,-0.3874,-0.406,-0.411,-0.421,-0.4124,-0.4646,-0.4657,-0.4667,0,-0.3605,-0.3543,-0.3734,-0.3682,-0.3673,-0.3789,-0.3788,-0.3835,-0.392,-0.3955,-0.3945,-0.3959,-0.3825,-0.3849,-0.3778,-0.3946,-0.3736,-0.3947,-0.4009,-0.3564,-0.3571,-0.3353,-0.338,-0.3467,-0.3466,-0.3464,-0.3463,0,-0.386,-0.3871,-0.3821,-0.3816,-0.3898,-0.3886,-0.3925,-0.3956,-0.3976,-0.3973,-0.4011,-0.3872,-0.3834,-0.373,-0.3716,-0.3644,-0.3673,-0.3563,-0.3918,-0.3951,-0.357,-0.3581,-0.3262,-0.3462,-0.3461,-0.3461,-0.3461,0,-0.4088,-0.4123,-0.4022,-0.41,-0.4105,-0.4044,-0.4069,-0.4021,-0.4018,-0.4039,-0.3957,-0.3926,-0.3757,-0.3741,-0.3602,-0.362,-0.36,-0.3563,-0.3568,-0.3963,-0.4053,-0.3812,-0.3704,-0.3448,-0.3708,-0.3709,-0.3709,0,-0.4289,-0.4254,-0.4349,-0.4234,-0.4207,-0.4291,-0.4214,-0.4194,-0.4193,-0.4157,-0.404,-0.3922,-0.3853,-0.3804,-0.37,-0.3644,-0.3587,-0.3582,-0.3642,-0.3646,-0.408,-0.4051,-0.3586,-0.3712,-0.3716,-0.3715,-0.3715,0,-0.4465,-0.4595,-0.4569,-0.4572,-0.4582,-0.457,-0.4473,-0.4408,-0.4406,-0.428,-0.4212,-0.3918,-0.3953,-0.3837,-0.3748,-0.3655,-0.3613,-0.3689,-0.3688,-0.3823,-0.3596,-0.4014,-0.405,-0.3574,-0.3571,-0.3569,-0.372,0,-0.4658,-0.4675,-0.468,-0.4709,-0.4694,-0.4648,-0.4651,-0.4617,-0.4623,-0.4575,-0.4408,-0.4262,-0.4101,-0.3997,-0.3938,-0.3747,-0.3829,-0.3799,-0.3863,-0.3738,-0.3826,-0.3821,-0.3889,-0.389,-0.3891,-0.3892,0,0,-0.4754,-0.4811,-0.4964,-0.4943,-0.4919,-0.4998,-0.4919,-0.4868,-0.4778,-0.4747,-0.4772,-0.4461,-0.4345,-0.4093,-0.4017,-0.3951,-0.3987,-0.3955,-0.3781,-0.3769,-0.3757,-0.3834,-0.3829,-0.3893,-0.3894,-0.3894,-0.3894,0,-0.4842,-0.4982,-0.5004,-0.4993,-0.5025,-0.501,-0.5022,-0.4994,-0.4965,-0.4821,-0.478,-0.4659,-0.4424,-0.4286,-0.4185,-0.3987,-0.4027,-0.3923,-0.3851,-0.3791,-0.3777,-0.3765,-0.3839,-0.3833,-0.3896,-0.3896,-0.3896,0,-0.4927,-0.5025,-0.5061,-0.5121,-0.5111,-0.5048,-0.5123,-0.5111,-0.5021,-0.501,-0.4858,-0.478,-0.4618,-0.4417,-0.4332,-0.4353,-0.4094,-0.4112,-0.4104,-0.4108,-0.405,-0.4033,-0.4017,-0.4231,-0.4233,-0.4235,0,0,-0.4979,-0.5071,-0.511,-0.5134,-0.515,-0.5129,-0.5106,-0.5111,-0.5059,-0.5031,-0.4944,-0.4827,-0.4675,-0.4595,-0.4461,-0.4273,-0.4296,-0.4158,-0.4142,-0.413,-0.4127,-0.4066,-0.4047,-0.4241,-0.4241,-0.4241,0,0,-0.4971,-0.5112,-0.5142,-0.5203,-0.5167,-0.513,-0.5107,-0.5111,-0.5025,-0.5053,-0.4971,-0.4943,-0.4782,-0.4706,-0.4801,-0.4449,-0.4507,-0.4485,-0.4509,-0.4488,-0.4472,-0.451,-0.4785,0,0,0,0,0,-0.5074,-0.5107,-0.5135,-0.5151,-0.5176,-0.5122,-0.5105,-0.5102,-0.5155,-0.5111,-0.505,-0.5033,-0.472,-0.4803,-0.4764,-0.4644,-0.432,-0.4306,-0.4293,-0.4279,-0.4258,-0.424,0,0,0,0,0,0,-0.5081,-0.5106,-0.5132,-0.512,-0.5124,-0.5122,-0.5169,-0.5162,-0.5159,-0.5164,-0.5044,-0.5027,-0.4958,-0.4818,-0.4784,-0.467,-0.4796,-0.4315,-0.4303,-0.4292,-0.4272,-0.4255,-0.424,0,0,0,0,0,-0.5086,-0.5106,-0.5189,-0.5113,-0.5116,-0.5111,-0.5171,-0.5167,-0.515,-0.5053,-0.5039,-0.5165,-0.4957,-0.4926,-0.4797,-0.4686,-0.4819,-0.4807,-0.4307,-0.4298,-0.4289,-0.4264,0,0,0,0,0,0,-0.509,-0.5032,-0.5184,-0.5178,-0.5162,-0.5107,-0.5113,-0.5171,-0.5037,-0.5028,-0.5167,-0.5171,-0.4954,-0.4931,-0.4908,-0.4694,-0.4838,-0.4825,-0.4817,-0.43,-0.4292,-0.4286,0,0,0,0,0,0,-0.5022,-0.5029,-0.518,-0.5244,-0.5244,-0.5104,-0.511,-0.497,-0.5033,-0.5152,-0.5156,-0.517,-0.4993,-0.4934,-0.4915,-0.4693,-0.4852,-0.484,-0.4832,-0.4826,-0.4294,-0.4288,0,0,0,0,0,0,-0.5021,-0.5027,-0.5243,-0.5244,-0.5244,-0.5165,-0.497,-0.4988,-0.5127,-0.5154,-0.5139,-0.5145,-0.4995,-0.4976,-0.4921,-0.4706,-0.4696,-0.4852,-0.4843,-0.4838,-0.4834,0,0,0,0,0,0,0,-0.5021,-0.5031,-0.5242,-0.5244,-0.5244,-0.5132,-0.5128,-0.5124,-0.5128,-0.5133,-0.5138,-0.5142,-0.492,-0.4907,-0.4894,-0.4716,0,0,-0.4853,-0.4847,0,0,0,0,0,0,0,0,-0.5024,-0.5029,-0.5242,-0.5242,-0.5242,-0.5132,-0.5128,-0.5125,-0.5129,-0.5133,-0.5137,-0.5141,-0.4917,-0.4906,-0.4895,0,0,0,0,0,0,0,0,0,0,0,0,0,0,0,-0.5242,-0.5242,0,-0.5131,-0.5128,-0.5126,-0.513,-0.5133,-0.5136,-0.5139,-0.4914,-0.4905,-0.4896,0,0,0,0,0,0,0,0,0,0,0,0,0,0,0,0,0,0,0,0,0,0,0,0,0,0,0,0,0,0,0,0,0,0,0,0,0,0,0,0,0,0,0,0,0,0,0,0,0,0,0,0,0,0,0,0,0,0,0,0,0,0,0,0,0,0,0,0,0]}],[{"header":{"parameterUnit":"kt","parameterCategory":2,"dx":1,"dy":1,"la1":30.253999710083008,"la2":30.299108505249023,"lo1":-89.0895004272461,"lo2":-89.04439544677734,"nx":28,"ny":28,"refTime":"2022-10-02T21:00:00:Z","depth":"0","parameterNumber":3,"parameterNumberName":"V-component_of_CURRENTS"},"data":[-0.1175,-0.1062,-0.1037,-0.1126,-0.1155,-0.1348,-0.1494,-0.1756,-0.1848,-0.1867,-0.1507,-0.1281,0.0046,0.1776,0.2933,0.3019,0.337,0.3251,0.3408,0.2965,0.2881,0.2801,0.2898,0.3603,0.3604,0.4244,0.425,0.4255,-0.1227,-0.1133,-0.1041,-0.0945,-0.1036,-0.1013,-0.1212,-0.138,-0.1696,-0.1788,-0.1978,-0.1263,-0.0513,0.0366,0.1662,0.2084,0.2178,0.2232,0.2346,0.2441,0.1663,0.1728,0.2196,0.2196,0.2196,0.2195,0.2195,0.2194,-0.1289,-0.1177,-0.0961,-0.0873,-0.0852,-0.0971,-0.1059,-0.1203,-0.1403,-0.1633,-0.1665,-0.1663,-0.0928,-0.0187,0.0115,0.1081,0.0864,0.1268,0.1314,0.129,0.1517,0.0697,0.0839,0.0837,0.0835,0.0833,0.0832,0,-0.1301,-0.1194,-0.0977,-0.0836,-0.0786,-0.0768,-0.0796,-0.0903,-0.0959,-0.1099,-0.1315,-0.1375,-0.1036,-0.0646,-0.0149,0.0018,0.0551,0.0323,0.0711,0.1064,0.1209,0.1377,0.0389,0.0492,0.0488,0.0485,0.0483,0.0481,-0.138,-0.1207,-0.0871,-0.0791,-0.0641,-0.0565,-0.059,-0.0552,-0.0652,-0.0764,-0.0878,-0.0857,-0.0942,-0.0703,-0.0328,-0.0047,0.0087,0.0219,0.0242,0.0719,0.0803,0.0825,0.0976,0.0438,0.0443,0.0448,0.0451,0,-0.1413,-0.1153,-0.0863,-0.0562,-0.0523,-0.0462,-0.0421,-0.0483,-0.0484,-0.0617,-0.0636,-0.0657,-0.0631,-0.0489,-0.0449,-0.0293,0.0009,-0.0165,0.0049,0.0071,0.0623,0.0702,0.0938,0.1136,0.0065,0.0069,0.0071,0,-0.1341,-0.1148,-0.0795,-0.0641,-0.0532,-0.0354,-0.0365,-0.0327,-0.0363,-0.0467,-0.0399,-0.0508,-0.0413,-0.0411,-0.033,-0.0236,-0.0338,-0.0161,-0.0162,-0.0047,-0.0022,0.0308,0.0397,-0.0353,-0.0354,-0.0355,-0.0356,0,-0.1415,-0.0995,-0.0762,-0.0636,-0.0333,-0.03,-0.0243,-0.024,-0.0269,-0.0282,-0.035,-0.0324,-0.0362,-0.0347,-0.0301,-0.0303,-0.031,-0.0329,-0.0192,-0.0179,-0.0074,-0.0049,0.0359,-0.0357,-0.0357,-0.0358,-0.0358,0,-0.1312,-0.1059,-0.0741,-0.0475,-0.0412,-0.031,-0.0287,-0.0209,-0.0229,-0.024,-0.0259,-0.0281,-0.0255,-0.0268,-0.0256,-0.0269,-0.026,-0.0257,-0.0256,-0.0165,-0.0166,0.006,0.012,0.0516,-0.0192,-0.0192,-0.0192,0,-0.142,-0.105,-0.0892,-0.0624,-0.0422,-0.0344,-0.0281,-0.0219,-0.0211,-0.0215,-0.0216,-0.0216,-0.0172,-0.0194,-0.0208,-0.0218,-0.0213,-0.0214,-0.0278,-0.0276,-0.017,-0.0152,-0.0008,0.0113,-0.0189,-0.0189,-0.0189,0,-0.1528,-0.1093,-0.106,-0.091,-0.0652,-0.055,-0.0438,-0.0329,-0.0341,-0.0234,-0.0238,-0.0152,-0.0199,-0.0177,-0.0168,-0.0192,-0.0194,-0.0215,-0.022,-0.0154,-0.0276,-0.0157,-0.0147,-0.0299,-0.0301,-0.0303,-0.0186,0,-0.1393,-0.1214,-0.112,-0.0883,-0.0769,-0.0602,-0.0471,-0.0416,-0.0383,-0.0326,-0.0299,-0.0249,-0.0226,-0.0199,-0.0166,-0.0184,-0.0164,-0.0229,-0.0236,-0.0249,-0.0187,-0.0189,-0.0173,-0.0173,-0.0173,-0.0174,0,0,-0.1554,-0.1355,-0.1256,-0.1068,-0.0946,-0.085,-0.0685,-0.0601,-0.0413,-0.0409,-0.0393,-0.0313,-0.0262,-0.0225,-0.0203,-0.0183,-0.0198,-0.0163,-0.0233,-0.0239,-0.0245,-0.0188,-0.019,-0.0175,-0.0175,-0.0175,-0.0175,0,-0.1505,-0.144,-0.132,-0.117,-0.0951,-0.085,-0.0808,-0.0595,-0.0545,-0.0425,-0.0414,-0.0391,-0.0277,-0.0252,-0.0228,-0.0191,-0.0191,-0.0184,-0.0161,-0.0234,-0.0239,-0.0245,-0.019,-0.0191,-0.0176,-0.0176,-0.0176,0,-0.1554,-0.1418,-0.1374,-0.1153,-0.1019,-0.0855,-0.0819,-0.0655,-0.0556,-0.0531,-0.0414,-0.0397,-0.0354,-0.0283,-0.0254,-0.0254,-0.0193,-0.0188,-0.0187,-0.0183,-0.0259,-0.0265,-0.027,-0.0206,-0.0206,-0.0206,0,0,-0.1522,-0.1432,-0.1221,-0.113,-0.1044,-0.0871,-0.0776,-0.0688,-0.0569,-0.0528,-0.046,-0.0414,-0.0369,-0.0332,-0.0281,-0.0209,-0.0221,-0.019,-0.0189,-0.0187,-0.0183,-0.0258,-0.0264,-0.0206,-0.0206,-0.0206,0,0,-0.1499,-0.1286,-0.1255,-0.1134,-0.0971,-0.075,-0.0671,-0.0607,-0.0519,-0.0528,-0.0468,-0.045,-0.0389,-0.0361,-0.0365,-0.0276,-0.0287,-0.0283,-0.0273,-0.0271,-0.0269,-0.0276,-0.0338,0,0,0,0,0,-0.1371,-0.1311,-0.1285,-0.1241,-0.0984,-0.0772,-0.0733,-0.061,-0.0613,-0.0558,-0.0514,-0.0491,-0.036,-0.0361,-0.0339,-0.0311,-0.0203,-0.0203,-0.0204,-0.0175,-0.0174,-0.0172,0,0,0,0,0,0,-0.1353,-0.1304,-0.1284,-0.107,-0.1008,-0.0776,-0.0758,-0.0723,-0.0616,-0.0609,-0.05,-0.0488,-0.0442,-0.0368,-0.035,-0.0323,-0.0344,-0.0203,-0.0204,-0.0204,-0.0175,-0.0173,-0.0172,0,0,0,0,0,-0.1337,-0.1297,-0.0931,-0.1068,-0.1015,-0.0824,-0.0762,-0.0732,-0.0658,-0.0544,-0.0527,-0.0569,-0.0443,-0.0425,-0.0357,-0.0333,-0.0356,-0.035,-0.0203,-0.0204,-0.0204,-0.0174,0,0,0,0,0,0,-0.1325,-0.1274,-0.0916,-0.0892,-0.1093,-0.0834,-0.0797,-0.0741,-0.0601,-0.0577,-0.0614,-0.0611,-0.0442,-0.0428,-0.0414,-0.0339,-0.0366,-0.0359,-0.0355,-0.0204,-0.0204,-0.0204,0,0,0,0,0,0,-0.1293,-0.1257,-0.0904,-0.0944,-0.0924,-0.0844,-0.081,-0.0736,-0.0606,-0.0683,-0.0672,-0.0615,-0.0497,-0.043,-0.0419,-0.0303,-0.0374,-0.0368,-0.0363,-0.036,-0.0204,-0.0204,0,0,0,0,0,0,-0.1274,-0.1242,-0.095,-0.0935,-0.0917,-0.0649,-0.078,-0.0553,-0.0548,-0.0696,-0.0552,-0.0554,-0.0503,-0.0488,-0.0423,-0.0312,-0.0305,-0.0374,-0.0369,-0.0366,-0.0364,0,0,0,0,0,0,0,-0.1259,-0.1517,-0.1045,-0.0927,-0.0912,-0.067,-0.0664,-0.0659,-0.0548,-0.055,-0.0551,-0.0553,-0.0411,-0.0404,-0.0397,-0.0318,0,0,-0.0375,-0.0371,0,0,0,0,0,0,0,0,-0.1525,-0.1519,-0.1044,-0.1039,-0.1033,-0.0669,-0.0664,-0.066,-0.0548,-0.055,-0.0551,-0.0552,-0.0409,-0.0404,-0.0398,0,0,0,0,0,0,0,0,0,0,0,0,0,0,0,-0.1044,-0.1039,0,-0.0668,-0.0665,-0.0661,-0.0549,-0.055,-0.0551,-0.0552,-0.0408,-0.0403,-0.0398,0,0,0,0,0,0,0,0,0,0,0,0,0,0,0,0,0,0,0,0,0,0,0,0,0,0,0,0,0,0,0,0,0,0,0,0,0,0,0,0,0,0,0,0,0,0,0,0,0,0,0,0,0,0,0,0,0,0,0,0,0,0,0,0,0,0,0,0,0]}]],[[{"header":{"parameterUnit":"kt","parameterCategory":2,"dx":1,"dy":1,"la1":30.253999710083008,"la2":30.299108505249023,"lo1":-89.0895004272461,"lo2":-89.04439544677734,"nx":28,"ny":28,"refTime":"2022-10-02T21:00:00:Z","depth":"2","parameterNumber":2,"parameterNumberName":"U-component_of_CURRENTS"},"data":[-0.1707,-0.1599,-0.1612,-0.1546,-0.1565,-0.1653,-0.18,-0.1992,-0.2187,-0.2241,-0.2235,-0.2291,-0.2501,-0.2036,-0.1927,-0.1797,-0.197,-0.1687,-0.2737,-0.2481,-0.2533,-0.2656,-0.26,0,0,0,0,0,-0.1874,-0.1795,-0.1725,-0.1792,-0.185,-0.1987,-0.2292,-0.2436,-0.27,-0.2902,-0.3025,-0.2711,-0.2564,-0.2694,-0.2408,-0.2367,-0.2187,-0.2387,-0.2125,-0.2186,-0.224,-0.2161,-0.164,-0.1638,-0.1635,-0.1633,0,0,-0.2156,-0.2068,-0.2011,-0.2055,-0.2139,-0.232,-0.2445,-0.2738,-0.3024,-0.3321,-0.3561,-0.3593,-0.3566,-0.3306,-0.3197,-0.3147,-0.3354,-0.3201,-0.3213,-0.3234,-0.3211,-0.3149,-0.2967,-0.2973,-0.2978,-0.2983,-0.2987,0,-0.2464,-0.2465,-0.2411,-0.2414,-0.247,-0.2645,-0.2853,-0.3013,-0.3459,-0.3667,-0.3952,-0.4048,-0.4092,-0.3861,-0.3861,-0.3724,-0.3778,-0.3647,-0.4288,-0.3202,-0.3123,-0.3097,-0.3126,-0.2949,-0.2955,-0.2959,-0.2963,-0.2965,-0.288,-0.2745,-0.2817,-0.2813,-0.2804,-0.2934,-0.305,-0.3428,-0.3578,-0.4,-0.4055,-0.4267,-0.4342,-0.4399,-0.4267,-0.4165,-0.437,-0.3785,-0.3629,-0.4143,-0.412,-0.4118,-0.4116,-0.3032,-0.3023,-0.3016,-0.3011,0,-0.3088,-0.31,-0.3007,-0.3111,-0.3187,-0.3215,-0.3533,-0.3637,-0.3879,-0.4052,-0.409,-0.4351,-0.4422,-0.4495,-0.4453,-0.4362,-0.4314,-0.4282,-0.3794,-0.3723,-0.4112,-0.4111,-0.4131,-0.4132,-0.4133,-0.4133,-0.4134,0,-0.3395,-0.3337,-0.3372,-0.3289,-0.3363,-0.353,-0.3653,-0.3834,-0.4054,-0.4187,-0.4324,-0.4414,-0.4427,-0.4471,-0.4373,-0.4307,-0.4326,-0.4177,-0.4157,-0.3744,-0.3711,-0.412,-0.4115,-0.417,-0.4171,-0.4172,-0.4173,0,-0.362,-0.3564,-0.3483,-0.3499,-0.3615,-0.3668,-0.3822,-0.4037,-0.4154,-0.4299,-0.4365,-0.4434,-0.4425,-0.4376,-0.4323,-0.4266,-0.4291,-0.4209,-0.4157,-0.4154,-0.3738,-0.37,-0.4174,-0.4174,-0.4174,-0.4174,-0.4175,0,-0.3788,-0.3753,-0.3589,-0.3756,-0.3773,-0.3763,-0.4058,-0.4094,-0.4258,-0.4299,-0.4353,-0.4364,-0.44,-0.432,-0.429,-0.4285,-0.4192,-0.4157,-0.4152,-0.417,-0.4124,-0.3642,-0.3562,-0.4055,-0.4055,-0.4055,-0.4055,0,-0.4019,-0.386,-0.395,-0.3872,-0.3813,-0.4003,-0.4067,-0.4146,-0.4207,-0.4251,-0.4292,-0.4272,-0.421,-0.4197,-0.4214,-0.4174,-0.4164,-0.4177,-0.4088,-0.4085,-0.4136,-0.4168,-0.3699,-0.3578,-0.4054,-0.4054,-0.4054,0,-0.4224,-0.4191,-0.4169,-0.4157,-0.4201,-0.4186,-0.4225,-0.425,-0.4351,-0.4195,-0.4264,-0.4174,-0.4166,-0.4157,-0.4149,-0.4169,-0.4154,-0.4091,-0.4091,-0.4069,-0.4125,-0.4157,-0.416,-0.4151,-0.4152,-0.4154,-0.4053,0,-0.4335,-0.4321,-0.4291,-0.4284,-0.4283,-0.4207,-0.4241,-0.4217,-0.4256,-0.4221,-0.4198,-0.4096,-0.4064,-0.4049,-0.4014,-0.4063,-0.4002,-0.4005,-0.4022,-0.404,-0.3984,-0.3985,-0.3955,-0.3954,-0.3953,-0.3952,0,0,-0.4497,-0.4505,-0.4608,-0.4509,-0.4525,-0.4554,-0.4454,-0.4414,-0.4253,-0.4275,-0.423,-0.4108,-0.4041,-0.4089,-0.4071,-0.3988,-0.395,-0.3989,-0.4014,-0.4021,-0.4027,-0.3977,-0.3979,-0.395,-0.395,-0.395,-0.3949,0,-0.455,-0.4724,-0.4685,-0.4629,-0.4553,-0.454,-0.4542,-0.4411,-0.4409,-0.4245,-0.4293,-0.426,-0.4029,-0.4059,-0.4049,-0.3973,-0.3935,-0.3927,-0.3987,-0.4005,-0.4013,-0.402,-0.3972,-0.3975,-0.3947,-0.3947,-0.3947,0,-0.4654,-0.4724,-0.4773,-0.4749,-0.4676,-0.4582,-0.4629,-0.4539,-0.4503,-0.4445,-0.4348,-0.4278,-0.4218,-0.4095,-0.4049,-0.4056,-0.3938,-0.3932,-0.3935,-0.395,-0.3968,-0.3977,-0.3984,-0.3896,-0.3896,-0.3896,0,0,-0.4668,-0.4765,-0.4725,-0.4752,-0.472,-0.4643,-0.4591,-0.457,-0.4496,-0.4466,-0.4378,-0.4322,-0.4259,-0.4215,-0.4084,-0.3938,-0.3926,-0.393,-0.3932,-0.3935,-0.3951,-0.3969,-0.3977,-0.3897,-0.3897,-0.3897,0,0,-0.4648,-0.4755,-0.4782,-0.4851,-0.4729,-0.4614,-0.4568,-0.4578,-0.4475,-0.4526,-0.4472,-0.4446,-0.4343,-0.4267,-0.4292,-0.4134,-0.4121,-0.4109,-0.4192,-0.4192,-0.4195,-0.4254,-0.4288,0,0,0,0,0,-0.47,-0.4747,-0.4772,-0.4786,-0.4754,-0.4595,-0.4562,-0.4563,-0.4678,-0.4591,-0.4568,-0.4558,-0.4289,-0.4307,-0.4256,-0.4257,-0.391,-0.3907,-0.3905,-0.3974,-0.3977,-0.3979,0,0,0,0,0,0,-0.4705,-0.4726,-0.4768,-0.4689,-0.4681,-0.4597,-0.4706,-0.4695,-0.4686,-0.4699,-0.4562,-0.4549,-0.4475,-0.4327,-0.4282,-0.4287,-0.4303,-0.3909,-0.3907,-0.3905,-0.3975,-0.3977,-0.3979,0,0,0,0,0,-0.4709,-0.4726,-0.474,-0.4679,-0.4672,-0.4657,-0.4713,-0.4706,-0.4681,-0.457,-0.456,-0.4712,-0.447,-0.4435,-0.43,-0.4311,-0.4332,-0.4316,-0.3908,-0.3906,-0.3905,-0.3976,0,0,0,0,0,0,-0.4712,-0.4612,-0.4731,-0.472,-0.478,-0.4656,-0.4658,-0.4714,-0.4551,-0.4544,-0.4712,-0.4723,-0.4463,-0.4438,-0.441,-0.4327,-0.4357,-0.434,-0.433,-0.3906,-0.3905,-0.3904,0,0,0,0,0,0,-0.4605,-0.4604,-0.4723,-0.4853,-0.4854,-0.4656,-0.466,-0.4464,-0.4549,-0.4693,-0.4703,-0.472,-0.4548,-0.4438,-0.4417,-0.4101,-0.4376,-0.436,-0.4349,-0.4342,-0.3906,-0.3905,0,0,0,0,0,0,-0.4599,-0.4598,-0.4853,-0.4854,-0.4855,-0.4697,-0.4473,-0.4454,-0.4646,-0.4697,-0.467,-0.4682,-0.4549,-0.4525,-0.4421,-0.4114,-0.4104,-0.4375,-0.4365,-0.4357,-0.4352,0,0,0,0,0,0,0,-0.4595,-0.4669,-0.484,-0.4855,-0.4856,-0.462,-0.4612,-0.4605,-0.4648,-0.4658,-0.4668,-0.4677,-0.4466,-0.4449,-0.4431,-0.4124,0,0,-0.4377,-0.4369,0,0,0,0,0,0,0,0,-0.4663,-0.4667,-0.484,-0.484,-0.484,-0.4618,-0.4613,-0.4607,-0.465,-0.4658,-0.4666,-0.4673,-0.4461,-0.4447,-0.4433,0,0,0,0,0,0,0,0,0,0,0,0,0,0,0,-0.484,-0.484,0,-0.4618,-0.4613,-0.4608,-0.4651,-0.4657,-0.4664,-0.467,-0.4457,-0.4446,-0.4434,0,0,0,0,0,0,0,0,0,0,0,0,0,0,0,0,0,0,0,0,0,0,0,0,0,0,0,0,0,0,0,0,0,0,0,0,0,0,0,0,0,0,0,0,0,0,0,0,0,0,0,0,0,0,0,0,0,0,0,0,0,0,0,0,0,0,0,0,0]}],[{"header":{"parameterUnit":"kt","parameterCategory":2,"dx":1,"dy":1,"la1":30.253999710083008,"la2":30.299108505249023,"lo1":-89.0895004272461,"lo2":-89.04439544677734,"nx":28,"ny":28,"refTime":"2022-10-02T21:00:00:Z","depth":"2","parameterNumber":3,"parameterNumberName":"V-component_of_CURRENTS"},"data":[-0.1386,-0.1377,-0.1382,-0.1425,-0.1422,-0.1416,-0.1371,-0.1254,-0.1105,-0.0903,-0.0697,-0.0442,0.0334,0.0538,0.0998,0.1273,0.1437,0.1276,0.1967,0.1558,0.1579,0.203,0.181,0,0,0,0,0,-0.1383,-0.1363,-0.1353,-0.1342,-0.1338,-0.1289,-0.1187,-0.1128,-0.0939,-0.0705,-0.0437,-0.0008,0.0422,0.1021,0.1477,0.1907,0.1754,0.2108,0.1796,0.1826,0.1853,0.1692,0.1555,0.1554,0.1553,0.1553,0,0,-0.1369,-0.1362,-0.1267,-0.1262,-0.1229,-0.1193,-0.1163,-0.0999,-0.0802,-0.049,-0.0128,0.0249,0.0758,0.1405,0.1807,0.2227,0.2373,0.254,0.2538,0.2543,0.2428,0.2208,0.248,0.2484,0.2488,0.2492,0.2495,0,-0.1358,-0.1301,-0.1217,-0.1195,-0.1149,-0.1099,-0.0976,-0.0895,-0.0588,-0.0349,0.0078,0.0376,0.1041,0.1461,0.205,0.2305,0.2622,0.2651,0.3019,0.2174,0.1928,0.1915,0.1891,0.2182,0.2185,0.2188,0.2189,0.2191,-0.1391,-0.1296,-0.1167,-0.1149,-0.1062,-0.0977,-0.0905,-0.0692,-0.0548,-0.0065,0.0081,0.0606,0.0939,0.1796,0.218,0.2626,0.2789,0.27,0.2592,0.2688,0.2688,0.2638,0.2591,0.2225,0.2221,0.2217,0.2214,0,-0.1415,-0.1276,-0.1157,-0.0977,-0.0947,-0.0896,-0.0724,-0.0599,-0.0347,-0.0067,0.0037,0.0531,0.1035,0.145,0.2054,0.2275,0.2708,0.2797,0.2227,0.2218,0.2593,0.255,0.3066,0.307,0.3074,0.3078,0.3081,0,-0.1371,-0.1298,-0.1098,-0.1015,-0.0953,-0.0776,-0.0639,-0.0487,-0.0207,-0.0011,0.0288,0.0555,0.1047,0.1432,0.1692,0.2166,0.225,0.2395,0.245,0.2065,0.2025,0.2253,0.2218,0.2533,0.2531,0.2529,0.2527,0,-0.1357,-0.1171,-0.1057,-0.1002,-0.0775,-0.0702,-0.0617,-0.0352,-0.0216,0.0131,0.0277,0.069,0.0928,0.128,0.1615,0.1549,0.2185,0.2156,0.2309,0.2302,0.2125,0.209,0.2525,0.2525,0.2524,0.2524,0.2523,0,-0.1253,-0.1131,-0.0979,-0.0808,-0.075,-0.069,-0.0495,-0.0375,-0.0049,0.0083,0.0354,0.0538,0.0902,0.0899,0.1443,0.1283,0.1448,0.164,0.1656,0.1771,0.1697,0.1543,0.1697,0.1713,0.1706,0.1701,0.1695,0,-0.1276,-0.1081,-0.0951,-0.0843,-0.0728,-0.0592,-0.0493,-0.0317,-0.0158,0.0064,0.0322,0.052,0.055,0.0649,0.0888,0.1173,0.1342,0.1121,0.1566,0.1577,0.1579,0.1793,0.1406,0.1611,0.162,0.1628,0.1633,0,-0.1271,-0.0976,-0.0968,-0.0881,-0.0702,-0.0603,-0.0494,-0.0291,-0.0183,-0.0006,0.0191,0.0403,0.0525,0.0628,0.0738,0.0965,0.1203,0.0976,0.0991,0.1046,0.1653,0.1675,0.1727,0.13,0.1311,0.1319,0.1573,0,-0.1005,-0.0973,-0.0922,-0.0774,-0.0684,-0.0592,-0.0414,-0.0316,-0.0249,-0.0108,0.0109,0.0295,0.0496,0.0529,0.0573,0.0835,0.0794,0.0856,0.089,0.0991,0.107,0.1117,0.0586,0.0587,0.0588,0.0589,0,0,-0.1045,-0.097,-0.0868,-0.0749,-0.0685,-0.0535,-0.0447,-0.0327,-0.0126,-0.0031,-0.0059,0.0263,0.0355,0.0577,0.0588,0.0623,0.0711,0.0603,0.0898,0.0931,0.0962,0.1046,0.109,0.0591,0.0591,0.0592,0.0592,0,-0.0903,-0.0931,-0.0908,-0.0788,-0.0602,-0.0488,-0.0471,-0.025,-0.0175,-0.0056,0.0033,0.0174,0.03,0.0456,0.0531,0.0616,0.0694,0.059,0.0633,0.0896,0.0927,0.0956,0.1043,0.1081,0.0595,0.0595,0.0594,0,-0.0839,-0.0762,-0.0806,-0.0665,-0.0528,-0.0416,-0.0332,-0.0215,-0.0148,-0.0041,0.0059,0.0157,0.029,0.0408,0.0455,0.0461,0.0706,0.0575,0.0572,0.0633,0.0911,0.0944,0.0973,0.06,0.0599,0.0599,0,0,-0.0736,-0.0767,-0.0595,-0.0629,-0.0545,-0.0368,-0.03,-0.0224,-0.0088,-0.0044,0.0053,0.0155,0.0262,0.0313,0.0423,0.0533,0.0664,0.0569,0.0569,0.0568,0.0626,0.0901,0.0933,0.0596,0.0596,0.0596,0,0,-0.0667,-0.0567,-0.0556,-0.0594,-0.0441,-0.0215,-0.0179,-0.0118,-0.0008,-0.0027,0.008,0.0106,0.0196,0.0272,0.0229,0.0414,0.0424,0.0436,0.0347,0.0348,0.0348,0.0388,0.0269,0,0,0,0,0,-0.0513,-0.0577,-0.057,-0.056,-0.0416,-0.0225,-0.019,-0.0099,-0.0111,-0.0071,0.0013,0.0037,0.028,0.0245,0.0277,0.0298,0.0565,0.0571,0.0576,0.0489,0.0489,0.0489,0,0,0,0,0,0,-0.0508,-0.0498,-0.0565,-0.0364,-0.033,-0.0225,-0.02,-0.017,-0.0114,-0.0111,0.0027,0.0043,0.0125,0.0233,0.0261,0.0279,0.026,0.0567,0.0572,0.0576,0.0489,0.0489,0.0489,0,0,0,0,0,-0.0503,-0.0494,-0.0332,-0.0357,-0.0327,-0.0197,-0.0203,-0.0179,-0.0127,0.0005,0.0024,-0.0078,0.0126,0.0152,0.025,0.0265,0.0241,0.0251,0.057,0.0574,0.0577,0.0489,0,0,0,0,0,0,-0.0499,-0.0415,-0.0319,-0.03,-0.0405,-0.0199,-0.0178,-0.0187,-0.0015,0.0005,-0.0095,-0.0095,0.0129,0.0148,0.0167,0.0255,0.0225,0.0236,0.0242,0.0573,0.0576,0.0579,0,0,0,0,0,0,-0.0418,-0.0401,-0.0308,-0.0375,-0.0362,-0.0201,-0.0184,-0.0069,-0.0017,-0.0121,-0.0116,-0.0098,0.0055,0.0146,0.0161,0.0345,0.0214,0.0224,0.023,0.0235,0.0576,0.0578,0,0,0,0,0,0,-0.0406,-0.0391,-0.0378,-0.0368,-0.0357,-0.0126,-0.0095,0.0022,-0.0015,-0.0131,-0.0025,-0.0029,0.0049,0.0069,0.0156,0.0334,0.0342,0.0214,0.0221,0.0225,0.0229,0,0,0,0,0,0,0,-0.0396,-0.0565,-0.0448,-0.0362,-0.0352,-0.0129,-0.0122,-0.0115,-0.0016,-0.002,-0.0024,-0.0028,0.0157,0.0168,0.0179,0.0326,0,0,0.0213,0.0218,0,0,0,0,0,0,0,0,-0.0565,-0.0565,-0.0447,-0.0444,-0.0441,-0.0127,-0.0122,-0.0116,-0.0017,-0.002,-0.0023,-0.0026,0.016,0.0169,0.0178,0,0,0,0,0,0,0,0,0,0,0,0,0,0,0,-0.0447,-0.0444,0,-0.0127,-0.0122,-0.0118,-0.0017,-0.002,-0.0022,-0.0025,0.0163,0.017,0.0177,0,0,0,0,0,0,0,0,0,0,0,0,0,0,0,0,0,0,0,0,0,0,0,0,0,0,0,0,0,0,0,0,0,0,0,0,0,0,0,0,0,0,0,0,0,0,0,0,0,0,0,0,0,0,0,0,0,0,0,0,0,0,0,0,0,0,0,0,0]}]],[[{"header":{"parameterUnit":"kt","parameterCategory":2,"dx":1,"dy":1,"la1":30.253999710083008,"la2":30.299108505249023,"lo1":-89.0895004272461,"lo2":-89.04439544677734,"nx":28,"ny":28,"refTime":"2022-10-02T21:00:00:Z","depth":"4","parameterNumber":2,"parameterNumberName":"U-component_of_CURRENTS"},"data":[-0.1337,-0.13,-0.1327,-0.1136,-0.1038,-0.1019,-0.1071,-0.1196,-0.1184,-0.1388,-0.1464,-0.1637,-0.1767,-0.1846,-0.1891,-0.1922,-0.2071,-0.2199,-0.2194,-0.2559,-0.2591,-0.2619,-0.2592,0,0,0,0,0,-0.1398,-0.1352,-0.1398,-0.1339,-0.1339,-0.1349,-0.1436,-0.1537,-0.1701,-0.1624,-0.1769,-0.1784,-0.1874,-0.1994,-0.1949,-0.2134,-0.2353,-0.2072,-0.2372,-0.2579,-0.2614,-0.2575,0,0,0,0,0,0,-0.1532,-0.1506,-0.1628,-0.1595,-0.1615,-0.1564,-0.1646,-0.1645,-0.1731,-0.1935,-0.1896,-0.2083,-0.2239,-0.2271,-0.2303,-0.2321,-0.2361,-0.2362,-0.2407,-0.2443,-0.2372,-0.2227,-0.1876,0,0,0,0,0,-0.1564,-0.1737,-0.1744,-0.1786,-0.1848,-0.1846,-0.1884,-0.1905,-0.2096,-0.2302,-0.2293,-0.234,-0.2341,-0.2491,-0.2474,-0.2548,-0.2926,-0.2766,-0.2788,-0.2919,-0.2847,-0.2794,-0.281,-0.275,-0.2754,-0.2757,-0.2759,0,-0.1617,-0.1729,-0.191,-0.1917,-0.2011,-0.2063,-0.2118,-0.2331,-0.236,-0.2555,-0.2507,-0.2614,-0.2727,-0.2681,-0.2867,-0.2933,-0.2899,-0.2857,-0.2996,-0.2905,-0.2842,-0.2849,-0.2855,-0.2787,-0.2785,-0.2783,-0.278,0,-0.1664,-0.1808,-0.1911,-0.2074,-0.2113,-0.2128,-0.2298,-0.235,-0.2599,-0.2655,-0.2719,-0.293,-0.3027,-0.3139,-0.3247,-0.3221,-0.3229,-0.3109,-0.3354,-0.3294,-0.291,-0.2904,-0.2835,-0.2824,-0.2815,-0.2808,-0.2802,0,-0.1749,-0.1826,-0.199,-0.2049,-0.2099,-0.2237,-0.2372,-0.25,-0.2671,-0.272,-0.2969,-0.3031,-0.3289,-0.331,-0.341,-0.3351,-0.3501,-0.3277,-0.3204,-0.3505,-0.3497,-0.3478,-0.3466,-0.3594,-0.3595,-0.3595,-0.3596,0,-0.1735,-0.1938,-0.2031,-0.2089,-0.2254,-0.2348,-0.2408,-0.2583,-0.2671,-0.2879,-0.2954,-0.3172,-0.3254,-0.3379,-0.3451,-0.3497,-0.3536,-0.3565,-0.3254,-0.323,-0.3478,-0.3464,-0.3597,-0.3597,-0.3597,-0.3597,-0.3598,0,-0.1834,-0.188,-0.2034,-0.2182,-0.2229,-0.2338,-0.2464,-0.2575,-0.2732,-0.2861,-0.3017,-0.3081,-0.3272,-0.3301,-0.3491,-0.3489,-0.347,-0.3484,-0.3479,-0.3201,-0.3068,-0.32,-0.333,-0.3329,-0.3328,-0.3327,-0.3326,0,-0.1778,-0.1904,-0.203,-0.2188,-0.2246,-0.2376,-0.2499,-0.2597,-0.2713,-0.2807,-0.2932,-0.306,-0.3172,-0.3243,-0.3339,-0.3401,-0.3419,-0.3405,-0.3339,-0.3336,-0.3052,-0.3112,-0.3413,-0.3312,-0.3314,-0.3315,-0.3316,0,-0.1727,-0.1927,-0.1999,-0.2045,-0.223,-0.2268,-0.2424,-0.2537,-0.2612,-0.2774,-0.2859,-0.3066,-0.3123,-0.3177,-0.3231,-0.33,-0.3381,-0.3293,-0.3293,-0.3222,-0.3411,-0.3125,-0.3105,-0.3395,-0.3399,-0.3402,-0.3306,0,-0.1762,-0.19,-0.1969,-0.2079,-0.2158,-0.2269,-0.2363,-0.2462,-0.2558,-0.2621,-0.2789,-0.2887,-0.2997,-0.304,-0.3074,-0.3206,-0.3155,-0.314,-0.3079,-0.3186,-0.3122,-0.3131,-0.3009,-0.3007,-0.3006,-0.3005,0,0,-0.1739,-0.1802,-0.1862,-0.1958,-0.2026,-0.2117,-0.2203,-0.2302,-0.2454,-0.2503,-0.254,-0.2748,-0.2804,-0.2921,-0.298,-0.2994,-0.2986,-0.3007,-0.3134,-0.3148,-0.3162,-0.3107,-0.3117,-0.3002,-0.3002,-0.3001,-0.3001,0,-0.1712,-0.1759,-0.1815,-0.1898,-0.2023,-0.2074,-0.2129,-0.2259,-0.2337,-0.2478,-0.2502,-0.2607,-0.2746,-0.2781,-0.2819,-0.2963,-0.2925,-0.2993,-0.3086,-0.3119,-0.3135,-0.315,-0.31,-0.3109,-0.2997,-0.2997,-0.2998,0,-0.1653,-0.1702,-0.1718,-0.1822,-0.1909,-0.1997,-0.2026,-0.2156,-0.2235,-0.2258,-0.2419,-0.2474,-0.2532,-0.2644,-0.2708,-0.2675,-0.2851,-0.2821,-0.283,-0.286,-0.2892,-0.2912,-0.2929,-0.2701,-0.27,-0.2699,0,0,-0.1643,-0.1684,-0.1754,-0.1817,-0.1872,-0.1975,-0.205,-0.2099,-0.2199,-0.2259,-0.2332,-0.241,-0.2487,-0.2543,-0.2606,-0.2725,-0.2707,-0.2785,-0.2799,-0.281,-0.2846,-0.2881,-0.2901,-0.2695,-0.2695,-0.2695,0,0,-0.1641,-0.1693,-0.1697,-0.1764,-0.1854,-0.1955,-0.2047,-0.2102,-0.2225,-0.2245,-0.2284,-0.2304,-0.2441,-0.246,-0.2406,-0.2589,-0.2531,-0.2544,-0.2574,-0.2592,-0.2606,-0.2628,-0.2358,0,0,0,0,0,-0.1626,-0.1675,-0.1677,-0.1694,-0.1815,-0.1936,-0.1963,-0.2045,-0.2085,-0.2159,-0.2231,-0.2223,-0.2424,-0.2376,-0.2399,-0.2472,-0.2646,-0.2654,-0.2663,-0.273,-0.2749,-0.2764,0,0,0,0,0,0,-0.1633,-0.1649,-0.1677,-0.1763,-0.1792,-0.1933,-0.1924,-0.1949,-0.2079,-0.2089,-0.2209,-0.2223,-0.2222,-0.2366,-0.2386,-0.2455,-0.2351,-0.2649,-0.2656,-0.2663,-0.2737,-0.2752,-0.2765,0,0,0,0,0,-0.1639,-0.1652,-0.1811,-0.1766,-0.1792,-0.1909,-0.1923,-0.1944,-0.2073,-0.2106,-0.2127,-0.2139,-0.2221,-0.2244,-0.2378,-0.2445,-0.2337,-0.2345,-0.2654,-0.266,-0.2665,-0.2744,0,0,0,0,0,0,-0.1643,-0.1693,-0.182,-0.1834,-0.1755,-0.1907,-0.1927,-0.194,-0.2085,-0.2106,-0.2025,-0.203,-0.222,-0.2238,-0.2255,-0.2442,-0.2326,-0.2333,-0.2338,-0.2658,-0.2663,-0.2667,0,0,0,0,0,0,-0.1686,-0.1703,-0.1827,-0.1807,-0.182,-0.1905,-0.1923,-0.2001,-0.2085,-0.1998,-0.2006,-0.2025,-0.2183,-0.2234,-0.2248,-0.237,-0.2317,-0.2324,-0.2329,-0.2333,-0.2662,-0.2666,0,0,0,0,0,0,-0.1696,-0.1711,-0.1805,-0.1814,-0.1825,-0.1989,-0.1978,-0.2093,-0.2082,-0.199,-0.2081,-0.208,-0.2177,-0.2194,-0.2243,-0.2359,-0.2367,-0.2317,-0.2322,-0.2326,-0.2328,0,0,0,0,0,0,0,-0.1704,-0.157,-0.1733,-0.182,-0.183,-0.1959,-0.1964,-0.1968,-0.2082,-0.2081,-0.2081,-0.208,-0.2275,-0.2283,-0.2291,-0.2349,0,0,-0.2316,-0.232,0,0,0,0,0,0,0,0,-0.1568,-0.1569,-0.1734,-0.1736,-0.1739,-0.196,-0.1964,-0.1967,-0.2081,-0.2081,-0.2081,-0.2081,-0.2277,-0.2284,-0.229,0,0,0,0,0,0,0,0,0,0,0,0,0,0,0,-0.1734,-0.1736,0,-0.1961,-0.1963,-0.1966,-0.2081,-0.2081,-0.2081,-0.2081,-0.2279,-0.2284,-0.229,0,0,0,0,0,0,0,0,0,0,0,0,0,0,0,0,0,0,0,0,0,0,0,0,0,0,0,0,0,0,0,0,0,0,0,0,0,0,0,0,0,0,0,0,0,0,0,0,0,0,0,0,0,0,0,0,0,0,0,0,0,0,0,0,0,0,0,0,0]}],[{"header":{"parameterUnit":"kt","parameterCategory":2,"dx":1,"dy":1,"la1":30.253999710083008,"la2":30.299108505249023,"lo1":-89.0895004272461,"lo2":-89.04439544677734,"nx":28,"ny":28,"refTime":"2022-10-02T21:00:00:Z","depth":"4","parameterNumber":3,"parameterNumberName":"V-component_of_CURRENTS"},"data":[-0.0903,-0.1004,-0.1069,-0.1209,-0.1294,-0.143,-0.1477,-0.1484,-0.1387,-0.1352,-0.106,-0.0932,-0.0393,-0.0712,0.0135,0.0246,0.0271,0.0949,0.0958,0.091,0.0887,0.0865,0.0737,0,0,0,0,0,-0.0871,-0.0935,-0.1081,-0.1198,-0.1331,-0.14,-0.1484,-0.1526,-0.1526,-0.1401,-0.1393,-0.1025,-0.0478,-0.0288,0.0137,0.0194,0.0586,0.0702,0.0652,0.0896,0.0869,0.0753,0,0,0,0,0,0,-0.0851,-0.0915,-0.1015,-0.1131,-0.1272,-0.1365,-0.1443,-0.1441,-0.1497,-0.1458,-0.1377,-0.1064,-0.0927,-0.0373,0.0073,0.0462,0.0515,0.0575,0.0567,0.0546,0.0413,0.0397,0.0639,0,0,0,0,0,-0.079,-0.0854,-0.0921,-0.1064,-0.1183,-0.1317,-0.1423,-0.147,-0.154,-0.1591,-0.1438,-0.1178,-0.0815,-0.0427,0.0032,0.0437,0.0469,0.0692,0.0678,0.055,0.0561,0.0622,0.0597,0.0769,0.0766,0.0764,0.0763,0,-0.0721,-0.0776,-0.0918,-0.0994,-0.1049,-0.1196,-0.1304,-0.1421,-0.1481,-0.1508,-0.1504,-0.1294,-0.1159,-0.0509,-0.0201,0.0367,0.0455,0.0623,0.0486,0.0516,0.0588,0.0569,0.0551,0.0741,0.0743,0.0745,0.0747,0,-0.0694,-0.0719,-0.0831,-0.0939,-0.0984,-0.1089,-0.1264,-0.1373,-0.1443,-0.152,-0.1531,-0.1467,-0.1129,-0.0833,-0.0436,-0.0199,0.0176,0.0362,0.01,0.0176,0.0519,0.0509,0.0707,0.0714,0.0721,0.0726,0.0731,0,-0.0651,-0.0718,-0.0775,-0.0814,-0.0957,-0.1002,-0.1175,-0.1241,-0.135,-0.1418,-0.1388,-0.1372,-0.1167,-0.0923,-0.0603,-0.0159,-0.0245,0.0117,0.0212,-0.0076,-0.0081,0.0016,0.0021,-0.0046,-0.0048,-0.005,-0.0052,0,-0.0605,-0.0663,-0.0742,-0.0764,-0.0849,-0.0935,-0.0998,-0.1092,-0.117,-0.1248,-0.1268,-0.1229,-0.1168,-0.0934,-0.0549,-0.0564,-0.0218,-0.0222,0.013,0.0148,0.0006,0.0014,-0.0054,-0.0055,-0.0055,-0.0056,-0.0057,0,-0.0554,-0.0574,-0.0646,-0.0758,-0.0774,-0.0824,-0.0958,-0.1002,-0.1078,-0.1086,-0.1108,-0.1034,-0.0994,-0.0852,-0.0604,-0.0637,-0.0408,-0.0256,-0.0241,-0.0016,0.011,0.0068,0.0001,-0.0,-0.0001,-0.0003,-0.0004,0,-0.051,-0.0546,-0.0561,-0.0633,-0.0652,-0.0664,-0.0729,-0.077,-0.0769,-0.0816,-0.0795,-0.0799,-0.0663,-0.0648,-0.0595,-0.0411,-0.034,-0.0423,-0.008,-0.0069,0.0067,0.0041,-0.0304,-0.0021,-0.0019,-0.0017,-0.0016,0,-0.0471,-0.0492,-0.0494,-0.0531,-0.0515,-0.0521,-0.0568,-0.0605,-0.0673,-0.0594,-0.0677,-0.0609,-0.0558,-0.053,-0.0457,-0.0413,-0.0351,-0.025,-0.0242,-0.0151,-0.0161,0.0005,0.0033,-0.03,-0.0301,-0.0302,-0.0029,0,-0.0422,-0.0458,-0.046,-0.0465,-0.046,-0.0462,-0.044,-0.0434,-0.0402,-0.0388,-0.0406,-0.0308,-0.0281,-0.0265,-0.018,-0.0228,-0.0107,-0.0075,-0.0018,-0.0095,0.0047,0.0055,0.0008,0.0011,0.0014,0.0017,0,0,-0.0378,-0.0425,-0.0393,-0.0388,-0.04,-0.033,-0.0348,-0.0315,-0.0232,-0.0257,-0.0176,-0.0107,-0.0032,-0.0095,-0.0104,-0.0041,0.0064,-0.002,-0.0051,-0.0059,-0.0066,0.0061,0.0066,0.0022,0.0023,0.0024,0.0025,0,-0.0359,-0.038,-0.0402,-0.0376,-0.0341,-0.0309,-0.0305,-0.0232,-0.0215,-0.0163,-0.0113,-0.009,0.0044,0.0033,0.0054,0.0006,0.0135,0.0048,-0.0072,-0.0026,-0.0039,-0.0049,0.0072,0.0074,0.0033,0.0032,0.0032,0,-0.0318,-0.0324,-0.0352,-0.0335,-0.0295,-0.0283,-0.0223,-0.0193,-0.0204,-0.0073,-0.0037,0.0033,0.0113,0.0132,0.0155,0.0187,0.0213,0.0199,0.0186,0.0176,0.0228,0.0214,0.02,0.0365,0.0365,0.0365,0,0,-0.0289,-0.0327,-0.0297,-0.0329,-0.0308,-0.0244,-0.0215,-0.0187,-0.012,-0.0084,-0.0003,0.0067,0.0109,0.0144,0.0214,0.0253,0.0333,0.023,0.0215,0.0201,0.0184,0.0232,0.0218,0.0366,0.0366,0.0366,0,0,-0.0267,-0.0281,-0.0284,-0.0321,-0.0279,-0.0207,-0.0186,-0.0149,-0.0067,-0.0068,0.0028,0.0053,0.0093,0.0171,0.0172,0.0198,0.0274,0.0277,0.0118,0.0101,0.0086,0.004,0.0227,0,0,0,0,0,-0.0255,-0.0287,-0.0292,-0.0297,-0.027,-0.0218,-0.0202,-0.0151,-0.0134,-0.0106,-0.0036,0.0011,0.0174,0.0179,0.0206,0.0151,0.0378,0.0376,0.0374,0.0182,0.0162,0.0146,0,0,0,0,0,0,-0.0257,-0.0266,-0.029,-0.0237,-0.023,-0.0217,-0.0192,-0.0175,-0.0136,-0.0129,-0.0005,0.0015,0.0076,0.017,0.0194,0.0138,0.022,0.0377,0.0376,0.0374,0.0175,0.0159,0.0145,0,0,0,0,0,-0.0258,-0.0265,-0.0259,-0.0232,-0.0226,-0.0166,-0.0192,-0.0177,-0.0127,-0.0041,-0.0019,-0.0096,0.0075,0.01,0.0185,0.0124,0.0204,0.0212,0.0376,0.0375,0.0373,0.0167,0,0,0,0,0,0,-0.0259,-0.0207,-0.0254,-0.0246,-0.0244,-0.0162,-0.0155,-0.018,-0.0037,-0.002,-0.0129,-0.0126,0.0074,0.0094,0.0113,0.0111,0.0191,0.02,0.0205,0.0375,0.0374,0.0373,0,0,0,0,0,0,-0.0204,-0.0203,-0.0249,-0.0269,-0.0262,-0.0159,-0.0154,-0.0065,-0.0034,-0.0129,-0.0125,-0.013,0.0044,0.009,0.0105,0.0244,0.0181,0.0189,0.0195,0.0199,0.0374,0.0373,0,0,0,0,0,0,-0.02,-0.0199,-0.0269,-0.0264,-0.0258,-0.0159,-0.0073,-0.0042,-0.008,-0.0133,-0.0082,-0.0082,0.0039,0.0056,0.0099,0.0232,0.0241,0.0181,0.0187,0.0191,0.0194,0,0,0,0,0,0,0,-0.0197,-0.0247,-0.0315,-0.026,-0.0255,-0.0182,-0.0178,-0.0174,-0.008,-0.0081,-0.0082,-0.0082,0.0134,0.0143,0.0152,0.0222,0,0,0.018,0.0184,0,0,0,0,0,0,0,0,-0.0244,-0.0246,-0.0315,-0.0315,-0.0314,-0.0181,-0.0178,-0.0175,-0.008,-0.0081,-0.0081,-0.0082,0.0136,0.0143,0.0151,0,0,0,0,0,0,0,0,0,0,0,0,0,0,0,-0.0315,-0.0315,0,-0.0181,-0.0178,-0.0176,-0.0081,-0.0081,-0.0081,-0.0082,0.0138,0.0144,0.015,0,0,0,0,0,0,0,0,0,0,0,0,0,0,0,0,0,0,0,0,0,0,0,0,0,0,0,0,0,0,0,0,0,0,0,0,0,0,0,0,0,0,0,0,0,0,0,0,0,0,0,0,0,0,0,0,0,0,0,0,0,0,0,0,0,0,0,0,0]}]]]